Total_Precipitation_Accumulation
1.68 1.69 1.70 1.62 1.62 1.63 1.71 1.77 1.78 1.57 1.29 1.06 0.91 0.83 0.94 0.99 1.23 1.17 0.97 0.99 0.92 0.80 0.71 0.66 0.73 0.84 1.01 1.16 1.29 1.38 1.49 1.48 1.38 1.27 1.27 1.30 1.31 1.41
1.43 1.48 1.53 1.54 1.59 1.60 1.67 1.73 1.70 1.63 1.45 1.22 1.07 1.01 1.06 0.97 1.10 1.01 1.04 1.18 1.00 0.86 0.77 0.71 0.72 0.80 0.87 0.90 0.89 0.82 0.83 0.86 0.86 0.92 0.95 1.00 1.10 1.23
1.10 1.15 1.21 1.27 1.36 1.41 1.53 1.60 1.63 1.59 1.38 1.22 1.11 1.11 1.12 1.10 1.11 1.04 1.08 1.10 0.99 0.90 0.78 0.69 0.70 0.74 0.81 0.85 0.83 0.76 0.69 0.65 0.67 0.72 0.80 0.83 0.82 0.84
0.85 0.92 0.97 1.02 1.13 1.20 1.29 1.38 1.51 1.55 1.46 1.30 1.19 1.12 1.03 1.04 1.20 1.25 1.24 1.15 1.11 1.17 1.08 0.92 0.83 0.78 0.76 0.81 0.88 0.85 0.76 0.68 0.61 0.61 0.67 0.74 0.79 0.82
0.56 0.62 0.71 0.80 0.93 1.01 1.07 1.17 1.33 1.37 1.44 1.33 1.28 1.22 1.08 1.03 1.18 1.20 1.28 1.44 1.32 1.40 1.54 1.34 1.08 0.90 0.81 0.84 0.90 0.90 0.82 0.74 0.61 0.58 0.64 0.71 0.71 0.75
0.51 0.52 0.56 0.59 0.67 0.77 0.90 1.10 1.29 1.41 1.45 1.39 1.36 1.33 1.27 1.18 1.24 1.32 1.39 1.49 1.52 1.37 1.41 1.39 1.32 1.19 1.02 0.91 0.95 1.00 0.97 0.89 0.80 0.73 0.69 0.69 0.68 0.68
0.47 0.52 0.54 0.51 0.52 0.56 0.57 0.76 0.99 1.23 1.34 1.40 1.41 1.43 1.38 1.34 1.26 1.36 1.43 1.57 1.69 1.67 1.57 1.41 1.37 1.22 1.10 1.02 0.97 1.00 1.06 1.04 0.97 0.87 0.81 0.79 0.76 0.73
0.51 0.56 0.55 0.50 0.55 0.53 0.51 0.54 0.65 0.81 0.98 1.11 1.21 1.26 1.31 1.40 1.51 1.52 1.50 1.58 1.66 1.67 1.54 1.55 1.50 1.38 1.22 1.04 1.05 1.06 1.09 1.11 1.07 0.99 0.89 0.81 0.79 0.80
0.49 0.63 0.70 0.64 0.62 0.66 0.67 0.61 0.55 0.55 0.70 0.88 1.00 1.05 1.14 1.25 1.49 1.54 1.52 1.55 1.48 1.53 1.40 1.45 1.42 1.30 1.22 1.18 1.19 1.11 1.12 1.08 1.07 1.02 0.98 0.92 0.85 0.86
0.45 0.58 0.83 0.86 0.75 0.71 0.75 0.86 0.78 0.62 0.61 0.66 0.81 0.92 0.98 1.15 1.49 1.71 1.65 1.44 1.39 1.46 1.36 1.37 1.32 1.21 1.15 1.14 1.18 1.09 1.07 1.03 1.00 1.00 0.98 0.95 0.90 0.91
0.39 0.51 0.67 0.83 0.76 0.72 0.72 0.79 0.83 0.73 0.67 0.68 0.65 0.73 0.85 1.02 1.29 1.56 1.67 1.60 1.44 1.39 1.27 1.19 1.21 1.22 1.25 1.21 1.15 1.14 1.06 1.06 1.06 1.04 1.06 1.05 1.01 1.06
0.25 0.41 0.56 0.56 0.52 0.59 0.70 0.81 0.90 0.75 0.65 0.74 0.73 0.75 0.78 0.96 1.28 1.50 1.62 1.60 1.47 1.44 1.34 1.24 1.23 1.26 1.44 1.40 1.23 1.17 1.11 1.13 1.14 1.12 1.11 1.14 1.20 1.17
0.19 0.33 0.41 0.38 0.37 0.46 0.58 0.70 0.84 0.70 0.72 0.86 0.91 0.88 0.96 1.00 1.12 1.27 1.47 1.58 1.48 1.31 1.25 1.36 1.42 1.35 1.33 1.35 1.32 1.24 1.15 1.08 1.08 1.10 1.11 1.12 1.16 1.14
0.21 0.27 0.30 0.27 0.29 0.33 0.38 0.49 0.61 0.68 0.77 0.91 0.98 0.94 0.91 0.97 1.03 1.07 1.18 1.29 1.28 1.23 1.14 1.10 1.19 1.18 1.14 1.05 1.04 1.12 1.13 1.10 1.06 1.06 1.08 1.19 1.17 1.18
0.19 0.23 0.24 0.26 0.30 0.31 0.32 0.40 0.54 0.73 0.91 0.92 0.84 0.82 0.85 0.90 0.91 1.03 1.10 1.15 1.18 1.18 1.08 0.93 0.94 1.00 1.00 0.94 0.87 0.89 0.99 1.05 1.01 0.97 0.98 1.03 1.05 1.08
0.19 0.20 0.20 0.26 0.29 0.29 0.35 0.47 0.63 0.82 0.90 0.82 0.76 0.67 0.69 0.83 0.89 0.91 0.95 0.97 1.03 1.08 1.00 0.94 0.90 0.89 0.90 0.87 0.83 0.81 0.80 0.86 0.92 0.94 0.94 0.92 0.91 0.94
0.18 0.24 0.29 0.35 0.40 0.47 0.57 0.66 0.68 0.72 0.77 0.70 0.74 0.68 0.64 0.71 0.75 0.76 0.78 0.75 0.76 0.76 0.79 0.81 0.84 0.82 0.80 0.82 0.84 0.80 0.80 0.76 0.76 0.85 0.92 0.91 0.87 0.87
0.21 0.29 0.37 0.45 0.52 0.60 0.66 0.67 0.67 0.68 0.71 0.67 0.66 0.65 0.60 0.60 0.62 0.63 0.67 0.70 0.73 0.70 0.64 0.61 0.64 0.70 0.74 0.80 0.80 0.75 0.77 0.79 0.80 0.82 0.83 0.82 0.76 0.75
0.19 0.30 0.49 0.55 0.54 0.59 0.64 0.62 0.54 0.48 0.49 0.52 0.51 0.49 0.47 0.48 0.51 0.53 0.55 0.61 0.64 0.60 0.60 0.61 0.61 0.63 0.65 0.61 0.58 0.57 0.66 0.71 0.73 0.76 0.78 0.76 0.70 0.68
0.14 0.21 0.35 0.40 0.43 0.49 0.49 0.46 0.39 0.33 0.33 0.34 0.34 0.36 0.37 0.39 0.40 0.44 0.44 0.44 0.50 0.51 0.51 0.53 0.54 0.56 0.59 0.59 0.53 0.47 0.48 0.56 0.60 0.63 0.65 0.69 0.72 0.82
0.15 0.20 0.24 0.28 0.29 0.29 0.30 0.30 0.30 0.31 0.31 0.30 0.32 0.34 0.35 0.36 0.35 0.34 0.38 0.41 0.41 0.41 0.43 0.43 0.43 0.50 0.55 0.61 0.58 0.45 0.40 0.47 0.52 0.53 0.60 0.68 0.68 0.64
0.14 0.16 0.17 0.18 0.19 0.20 0.22 0.25 0.27 0.31 0.32 0.32 0.32 0.33 0.35 0.36 0.34 0.33 0.33 0.34 0.36 0.39 0.39 0.40 0.43 0.47 0.52 0.59 0.55 0.47 0.42 0.44 0.49 0.59 0.60 0.61 0.59 0.54
0.16 0.15 0.15 0.16 0.18 0.20 0.24 0.26 0.27 0.30 0.33 0.33 0.34 0.35 0.37 0.37 0.37 0.37 0.36 0.36 0.37 0.40 0.42 0.44 0.46 0.49 0.51 0.52 0.51 0.49 0.46 0.47 0.49 0.52 0.52 0.55 0.54 0.51